TERRASAR-X

Last updated on Wed Sep 17 2025 00:02:30 GMT+0000 (Coordinated Universal Time)

1 31698U 07026A 25258.78455620 .00001675 00000+0 82952-4 0 9999 2 31698 97.4469 265.4338 0001825 84.3979 275.7463 15.19148249 11566
UTC large
Height (km)
Speed (km/s)
/
Latitude / Longitude
Inclination (degrees)
Orbital Period (minutes)
Azimuth
Elevation
Range (km)
Doppler Factor

Next 0 passes for location: London (51.5072 / 0.1276)

Sorry there are no passes over London.